* Astronomy

Members Login
Username 
 
Password 
    Remember Me  
Post Info TOPIC: Asteroid (12171) 2382 T-3


L

Posts: 131433
Date:
Asteroid 12171 Johannink (2382 T-3)
Permalink  
 


The asteroid has been named after Carl F. Johannink.
Carl F. Johannink (b. 1959) is a Dutch high-school teacher and amateur astronomer. His main interests lie in meteor astronomy. He is a very prolific meteor observer, active within the Dutch Meteor Society.

__________________


L

Posts: 131433
Date:
Asteroid (12171) 2382 T-3
Permalink  
 


Orbital Elements at Epoch 2455400.5 (2010-Jul-23.0) TDB
Reference: MPO160659 (heliocentric ecliptic J2000)
Element Value Uncertainty (1-sigma) Units
e 0.0596033 n/a
a 2.7380757 n/a AU
q 2.5748774 n/a AU
i 2.37651 n/a deg
node 310.91084 n/a deg
peri 275.17560 n/a deg
M 234.95433 n/a deg
tp 2455975.3211615
(2012-Feb-17.82116151)
n/a JED
period 1654.8803179
4.53
n/a
n/a
d
yr
n 0.21753839 n/a deg/d
Q 2.9012740 n/a AU
Orbit Determination Parameters
# obs. used (total) 328
first obs. used 1977-??-??
last obs. used 2008-09-06
# oppositions 10
planetary ephem. DE403
quality code 0
fit RMS 0.63
data source MPC:mpn
producer MPCALB

Additional Information
T_jup = 3.347
Source

__________________
Page 1 of 1  sorted by
 
Quick Reply

Please log in to post quick replies.



Create your own FREE Forum
Report Abuse
Powered by ActiveBoard